#timestamp,LO_Frequency,Hit,StdDev 
1597609195.8,286047018.5,P
1597609215.6,286047020.3,P
1597609235.5,286047017.8,P
1597609255.3,286047019.4,Y
1597609275.1,286047001.9,P
1597609295.9,286047001.8,N
1597609315.7,286047001.4,N
1597609335.6,286047001.7,N
1597609355.4,286047002.3,N
1597609375.2,286047001.4,N
1597609395.1,286047003.8,N
1597609396.0,286047003.8,N
1597609415.8,286047003.7,N
1597609435.6,286047003.7,N
1597609455.5,286047003.2,N
1597609475.3,286047004.1,N
1597609495.2,286047003.1,N
1597609545.9,286047004.5,E
1597609555.8,286047003.5,N
1597609575.7,286047002.0,P
1597609595.5,286046999.8,N
1597609615.3,286047002.2,N
1597609635.2,286047001.3,N
1597609655.0,286047003.8,Y
1597609655.9,286047003.8,P
1597609675.8,286047002.4,N
1597609695.6,286046999.7,N
1597609715.4,286047002.1,N
1597609735.3,286047002.0,N
1597609755.1,286047002.1,N
1597609775.9,286047001.4,N
1597609795.7,286047003.5,Y
1597609815.5,286047002.8,P
1597609835.4,286046999.8,N
1597609855.2,286047002.6,N
1597609875.0,286047002.2,N
1597609875.9,286047002.2,N
1597609895.8,286047001.3,N
1597609915.6,286047004.0,Y
1597609935.5,286047002.4,P
1597609955.3,286047002.8,P
1597609975.1,286047002.6,P
1597609995.9,286047002.5,Y
1597610015.7,286046998.8,P
1597610035.5,286046998.6,N
1597610055.4,286046998.3,N
1597610075.2,286046998.1,N
1597610095.1,286047000.5,N
1597610096.0,286047000.5,N
1597610115.8,286047000.1,N
1597610135.6,286047002.7,N
1597610155.5,286047002.8,N
1597610175.3,286047002.1,N
1597610195.1,286047001.9,N
1597610215.9,286047001.8,N
1597610235.7,286047003.9,N
1597610255.6,286047004.3,N
1597610275.4,286047005.3,N
1597610295.2,286047007.5,Y
1597610315.1,286047005.6,P
1597610316.0,286047005.6,N
1597610335.8,286047005.3,N
1597610355.7,286047004.7,N
1597610375.5,286047005.7,Y
1597610395.3,286047002.2,P
1597610415.2,286047002.5,N
1597610435.0,286047002.4,N
1597610435.9,286047002.4,N
1597610455.7,286047001.6,N
1597610475.6,286047002.3,N
1597610495.4,286047002.1,N
1597610515.3,286047002.3,N
1597610535.1,286047002.7,Y
1597610555.8,286047000.8,P
1597610575.7,286047000.7,N
1597610595.5,286047001.0,N
1597610615.4,286047002.7,Y
1597610635.2,286046999.4,P
1597610655.0,286046999.0,N
1597610655.9,286046999.0,N
1597610675.8,286046998.5,N
1597610695.6,286046998.3,N
1597610715.5,286046999.1,N
1597610735.3,286046998.5,N
1597610755.1,286047001.0,N
1597610775.9,286047000.5,N
1597610795.7,286046999.8,N
1597610815.5,286047000.1,N
1597610835.4,286047001.4,N
1597610855.2,286047003.9,Y
1597610875.1,286047005.8,P
1597610876.0,286047005.8,N
1597610895.8,286047003.8,N
1597610915.6,286047003.3,N
1597610935.5,286047003.3,N
1597610955.3,286047003.3,N
1597610975.2,286047005.5,N
1597610995.9,286047005.8,Y
1597611015.7,286047001.9,P
1597611035.6,286047001.3,N
1597611055.4,286047002.0,N
1597611075.3,286047001.8,N
1597611095.1,286047001.4,N
1597611096.0,286047001.4,N
1597611115.8,286047001.9,N
1597611135.7,286047001.5,N
1597611155.5,286047004.4,Y
1597611175.3,286046999.9,P
1597611195.2,286047002.4,N
1597611215.0,286047002.3,N
1597611215.9,286047002.3,N
1597611235.8,286047002.8,N
1597611255.6,286047002.4,N
1597611275.4,286047001.5,N
1597611295.3,286047001.6,N
1597611315.1,286047011.9,Y
1597611335.9,286047001.1,P
1597611355.7,286046999.8,N
1597611375.5,286047001.0,N
1597611395.4,286046998.9,N
1597611415.2,286047000.8,N
1597611435.1,286047000.9,N
1597611436.0,286047000.9,N
1597611455.8,286047000.0,N
1597611475.6,286047000.0,N
1597611495.5,286047001.0,N
1597611515.3,286046998.6,N
1597611535.1,286047000.9,N
1597611555.9,286047000.6,N
1597611575.7,286047000.1,N
1597611595.6,286047000.4,N
